Date,TemperatureHighF,TemperatureAvgF,TemperatureLowF,DewpointHighF,DewpointAvgF,DewpointLowF,HumidityHigh,HumidityAvg,HumidityLow,PressureMaxIn,PressureMinIn,WindSpeedMaxMPH,WindSpeedAvgMPH,GustSpeedMaxMPH,PrecipitationSumIn
2013-1-1,38.2,34.2,23.3,27.7,20.8,7.9,69,58,47,29.89,29.67,27,11,27,0.04
2013-1-2,30.7,25.1,19.2,16.4,11.4,7.2,62,56,47,30.00,29.81,26,9,26,0.00
2013-1-3,31.6,24.9,12.5,17.5,12.2,3.5,67,58,46,30.04,29.87,14,7,14,0.00
2013-1-4,37.7,33.6,30.7,23.6,20.8,17.6,67,59,51,29.90,29.72,25,11,25,0.00
2013-1-5,40.4,35.2,29.5,23.2,21.0,17.2,71,56,48,30.11,29.82,26,10,26,0.00
2013-1-6,45.2,36.8,30.3,31.5,26.0,21.7,88,65,49,30.07,29.80,15,6,15,0.00
2013-1-7,42.6,37.5,28.8,29.7,24.1,18.9,73,59,42,30.22,29.88,20,6,20,0.00
2013-1-8,47.1,36.3,26.6,30.5,25.8,18.9,82,66,51,30.24,30.12,17,5,17,0.00
2013-1-9,46.4,37.7,28.1,37.1,30.3,23.0,87,75,58,30.22,29.93,21,5,21,0.00
2013-1-10,46.7,42.1,37.0,31.7,24.3,21.1,59,49,38,30.36,30.02,29,10,29,0.00
2013-1-11,40.2,36.6,32.7,40.2,29.8,21.8,100,77,56,30.36,29.93,9,2,9,0.43
2013-1-12,45.4,43.0,40.2,45.2,43.0,40.2,100,100,100,30.01,29.90,10,3,10,0.06
2013-1-13,45.9,44.1,42.4,45.9,44.1,42.3,100,100,100,30.00,29.82,8,2,8,0.02
2013-1-14,54.2,47.1,35.7,54.1,42.8,29.9,100,87,52,30.12,29.71,28,6,28,0.10
2013-1-15,36.7,34.9,32.8,33.8,27.3,23.3,100,75,61,30.15,30.04,16,5,16,0.12
2013-1-16,33.4,31.2,29.2,33.3,31.0,23.9,100,99,71,30.06,29.60,12,3,12,0.01
2013-1-17,40.7,36.6,30.0,37.3,28.6,19.4,100,74,56,29.91,29.72,23,7,23,0.55
2013-1-18,30.1,25.0,21.7,19.7,7.8,0.8,65,48,33,30.29,29.85,20,9,20,0.00
2013-1-19,47.5,37.7,25.7,28.4,21.6,8.7,66,52,43,30.22,29.73,31,14,31,0.00
2013-1-20,51.2,40.2,27.8,30.9,22.1,8.6,76,50,26,29.86,29.49,35,16,35,0.00
2013-1-21,28.7,26.3,22.7,16.7,11.4,7.0,69,53,44,29.92,29.63,20,5,20,0.00
2013-1-22,25.4,17.8,11.5,16.6,-1.1,-10.7,69,43,32,30.04,29.63,29,14,29,0.00
2013-1-23,17.4,12.6,8.8,-0.9,-4.3,-9.1,56,46,35,30.09,29.96,24,9,24,0.00
2013-1-24,21.1,14.1,8.5,1.7,-2.2,-5.3,65,49,32,30.24,29.99,36,12,36,0.00
2013-1-25,22.0,16.4,11.8,14.0,3.9,-3.1,86,58,42,30.27,29.91,30,6,30,0.00
2013-1-26,26.5,18.5,12.7,12.4,7.5,4.0,86,64,40,30.22,29.90,25,8,25,0.00
2013-1-27,33.1,24.7,17.4,12.4,9.8,5.8,69,54,40,30.37,30.21,18,8,18,0.00
2013-1-28,32.6,28.5,23.1,32.6,23.5,10.6,100,83,56,30.34,29.83,12,3,12,0.14
2013-1-29,46.7,38.7,32.4,46.7,38.6,32.3,100,100,95,29.96,29.82,9,3,9,0.22
2013-1-30,54.2,45.9,36.6,54.1,43.5,-45.7,100,96,3,29.93,29.17,10,2,10,0.27
2013-1-31,60.0,43.8,28.0,60.0,26.8,-29.0,100,54,8,29.59,28.84,53,23,53,1.03
2013-2-1,28.7,26.1,22.3,13.8,8.9,2.6,64,48,35,30.05,29.58,36,15,36,0.00
2013-2-2,27.4,22.0,17.1,19.6,9.8,2.7,92,60,37,30.15,29.90,26,8,26,0.00
2013-2-3,29.7,24.0,19.9,21.2,18.4,15.1,99,80,59,29.91,29.61,14,3,14,0.01
2013-2-4,29.1,25.4,21.4,19.6,9.6,5.3,79,51,39,29.81,29.64,28,11,28,0.00
2013-2-5,28.5,26.0,23.5,26.8,20.4,10.5,98,80,53,29.80,29.71,7,1,7,0.00
2013-2-6,37.6,30.9,26.7,31.5,19.1,-1.1,100,67,29,30.17,29.74,27,8,27,0.00
2013-2-7,29.6,25.6,21.6,16.1,6.5,-1.1,61,44,29,30.34,30.17,10,3,10,0.00
2013-2-8,31.4,29.4,25.0,31.3,26.6,16.3,100,90,62,30.18,29.48,27,12,27,0.00
2013-2-9,31.6,26.2,19.1,27.4,14.0,0.6,100,65,30,30.19,29.59,31,15,31,0.00
2013-2-10,35.7,24.4,14.6,15.4,6.8,1.0,60,47,29,30.33,30.17,12,2,12,0.00
2013-2-11,41.5,34.8,27.1,41.4,31.7,15.2,100,90,60,30.18,29.49,12,1,12,0.41
2013-2-12,42.1,39.4,36.1,40.4,28.5,22.3,100,66,51,29.78,29.53,28,10,28,0.00
2013-2-13,41.2,35.7,28.3,32.2,24.0,20.1,100,63,50,29.77,29.50,10,3,10,0.00
2013-2-14,43.7,36.5,29.7,33.7,28.9,23.9,100,77,47,29.82,29.53,16,4,16,0.28
2013-2-15,53.2,41.5,31.5,35.3,30.1,25.1,97,66,38,29.82,29.70,27,6,27,0.00
2013-2-16,36.8,32.5,28.6,34.2,25.3,13.0,100,76,53,29.80,29.57,18,9,18,0.06
2013-2-17,28.9,25.6,23.9,13.7,6.3,-1.0,53,44,31,29.58,29.51,38,17,38,0.00
2013-2-18,33.4,28.3,17.1,10.9,6.2,1.6,53,39,30,30.05,29.98,24,10,24,0.00
2013-2-19,44.5,35.4,24.5,41.8,26.8,10.4,100,73,46,30.03,29.49,34,6,35,0.32
2013-2-20,36.9,29.3,23.7,22.7,12.9,6.8,60,50,39,29.81,29.51,31,17,31,0.04
2013-2-21,30.5,25.6,22.7,13.9,11.7,9.0,65,55,49,30.14,29.78,34,17,35,0.00
2013-2-22,36.2,30.2,22.7,28.6,21.1,12.3,81,69,59,30.23,30.09,24,7,24,0.00
2013-2-23,38.9,34.9,32.1,38.8,34.6,28.5,100,99,81,30.11,29.64,15,4,15,0.15
2013-2-24,43.9,36.8,32.6,42.1,32.5,22.3,100,86,61,29.79,29.56,29,10,29,0.12
2013-2-25,42.0,37.0,30.9,29.7,26.3,21.8,77,65,55,30.05,29.79,16,5,16,0.00
2013-2-26,40.4,36.5,31.7,34.5,29.7,24.6,100,76,64,30.11,29.76,21,7,21,0.19
2013-2-27,45.1,40.7,34.3,45.1,40.6,34.3,100,100,96,29.76,29.31,33,11,33,1.36
2013-2-28,47.0,41.5,37.9,42.1,35.7,29.2,100,81,61,29.44,29.35,17,4,17,0.00
2013-3-1,42.7,38.0,34.5,31.7,28.2,22.4,83,68,53,29.60,29.41,20,9,20,0.00
2013-3-2,37.5,33.8,28.9,24.5,22.7,21.5,80,64,57,29.61,29.51,20,11,20,0.00
2013-3-3,37.7,30.4,26.8,22.6,17.4,14.7,77,59,44,29.60,29.48,25,12,25,0.00
2013-3-4,36.4,30.9,25.7,19.4,17.5,13.4,66,57,49,29.73,29.59,32,16,32,0.00
2013-3-5,44.7,36.8,29.9,26.6,23.0,18.3,67,58,47,29.85,29.73,24,9,24,0.00
2013-3-6,41.2,38.3,36.7,36.9,29.4,25.1,89,70,61,29.81,29.70,37,16,37,0.00
2013-3-7,37.1,34.0,31.0,33.7,28.9,24.6,100,82,63,29.90,29.76,33,15,33,0.05
2013-3-8,41.1,34.2,29.3,39.7,31.2,25.5,100,90,61,30.03,29.83,30,13,30,0.28
2013-3-9,52.5,42.6,33.8,25.5,21.6,16.8,62,45,26,30.15,30.01,25,9,25,0.00
2013-3-10,49.9,39.2,30.3,35.5,30.1,19.1,91,71,42,30.22,30.09,14,3,14,0.00
2013-3-11,52.1,44.3,36.9,49.1,42.0,34.5,100,93,69,30.13,29.89,20,6,20,0.00
2013-3-12,53.2,49.4,42.0,53.2,48.9,37.4,100,98,84,29.89,29.46,27,10,27,0.93
2013-3-13,48.1,41.2,36.4,37.8,30.1,20.8,89,67,35,29.76,29.58,24,8,24,0.00
2013-3-14,38.2,32.0,25.7,26.2,11.9,5.2,65,44,27,29.77,29.63,36,18,36,0.00
2013-3-15,43.7,35.2,28.0,29.8,19.2,7.5,64,52,37,29.80,29.51,28,13,28,0.00
2013-3-16,38.7,32.8,29.3,32.1,24.7,18.2,100,74,55,29.74,29.60,15,4,15,0.01
2013-3-17,36.1,31.5,26.3,31.6,18.0,10.2,98,60,39,30.13,29.74,23,9,23,0.00
2013-3-18,32.9,28.4,24.5,30.4,15.4,7.2,100,61,43,30.25,29.87,18,7,18,0.00
2013-3-19,40.8,34.7,30.3,40.8,34.6,29.2,100,100,82,29.87,29.50,21,9,21,1.02
2013-3-20,41.9,35.5,29.6,29.2,20.9,17.4,81,56,38,29.70,29.58,28,10,28,0.00
2013-3-21,36.9,32.4,28.6,26.1,16.7,11.1,82,53,37,29.66,29.43,22,8,22,0.00
2013-3-22,39.0,33.0,27.4,23.1,18.6,12.7,67,55,46,29.69,29.55,25,10,25,0.00
2013-3-23,43.0,36.9,32.3,23.5,21.0,18.6,62,53,39,29.75,29.63,30,15,30,0.00
2013-3-24,43.6,37.4,31.0,25.3,22.5,19.2,66,55,45,29.78,29.53,21,8,21,0.00
2013-3-25,41.7,38.4,35.3,33.6,28.0,24.3,80,66,53,29.54,29.27,26,8,26,0.00
2013-3-26,47.7,41.6,36.1,29.8,27.7,24.4,72,58,42,29.67,29.40,22,7,22,0.00
2013-3-27,49.6,41.8,35.2,29.3,25.4,19.0,66,53,32,29.78,29.66,30,12,30,0.00
2013-3-28,47.2,42.1,37.2,32.8,29.5,27.2,71,61,53,29.92,29.77,21,12,21,0.00
2013-3-29,50.7,44.9,39.3,30.1,28.2,25.3,65,52,38,29.96,29.85,21,11,21,0.00
2013-3-30,55.9,46.3,37.6,30.8,25.7,19.9,70,47,26,29.98,29.86,23,6,23,0.00
2013-3-31,53.6,44.2,33.7,43.9,31.2,20.8,100,62,38,29.94,29.49,27,6,27,0.12
2013-4-1,59.7,45.4,35.3,51.4,36.2,10.4,100,75,32,29.72,29.40,31,10,31,0.02
2013-4-2,41.3,35.5,30.5,15.7,11.9,7.1,53,38,27,29.89,29.71,32,13,32,0.00
2013-4-3,43.2,36.1,31.0,15.7,13.0,8.3,51,39,30,30.10,29.87,31,15,31,0.00
2013-4-4,53.0,40.0,30.1,31.0,20.8,13.5,64,47,29,30.18,29.88,20,8,22,0.00
2013-4-5,58.6,46.8,38.7,30.4,22.8,15.2,60,41,21,29.88,29.51,29,11,29,0.00
2013-4-6,51.1,40.8,33.5,27.0,15.5,6.4,61,38,19,30.11,29.79,26,10,26,0.00
2013-4-7,54.6,45.5,37.1,45.5,34.9,26.6,86,67,44,30.10,29.78,27,9,27,0.00
2013-4-8,71.4,56.4,43.2,48.9,43.3,38.9,100,67,32,29.88,29.76,20,5,20,0.00
2013-4-9,77.8,65.0,50.2,53.3,44.9,38.9,100,55,25,29.79,29.68,31,8,31,0.00
2013-4-10,69.0,59.7,51.5,57.1,50.2,39.6,100,73,39,29.75,29.59,32,6,32,0.64
2013-4-11,58.2,51.9,42.9,57.1,46.3,33.9,100,83,55,29.86,29.57,18,8,18,0.03
2013-4-12,45.4,41.5,38.8,42.9,38.2,32.0,100,89,65,29.84,29.53,34,13,34,0.74
2013-4-13,56.2,46.8,38.8,44.2,36.5,31.2,100,72,42,29.76,29.56,20,6,20,0.05
2013-4-14,52.5,48.6,44.0,34.0,28.7,23.3,60,47,35,30.02,29.75,31,10,31,0.00
2013-4-15,56.4,47.7,40.0,33.6,29.4,25.5,63,49,41,30.18,30.02,18,5,18,0.00
2013-4-16,61.2,53.7,44.6,56.3,46.7,31.4,90,77,56,30.17,29.90,20,6,20,0.00
2013-4-17,65.8,59.0,52.0,59.3,43.5,33.1,100,61,33,30.08,29.90,17,7,17,0.00
2013-4-18,58.2,52.8,46.9,53.4,42.1,32.8,100,70,40,30.15,29.90,21,7,21,0.00
2013-4-19,70.8,62.0,53.4,66.4,60.8,53.1,100,96,79,29.90,29.42,23,8,23,0.45
2013-4-20,61.8,51.4,42.2,61.8,35.1,21.2,100,59,28,30.09,29.43,28,12,28,0.25
2013-4-21,50.4,42.5,34.5,22.5,19.2,16.7,55,40,27,30.41,30.09,21,9,21,0.00
2013-4-22,51.9,44.8,37.8,34.2,27.9,20.6,75,53,31,30.47,30.30,27,10,27,0.00
2013-4-23,50.4,43.2,37.7,42.7,36.5,29.3,100,77,70,30.30,29.91,17,9,17,0.00
2013-4-24,68.4,52.9,38.7,53.3,45.5,38.6,100,79,49,29.92,29.60,22,6,22,0.00
2013-4-25,62.7,53.9,44.3,57.1,29.6,19.7,100,44,21,30.05,29.64,31,10,31,0.00
2013-4-26,63.3,53.2,41.8,34.8,30.2,21.1,68,44,20,30.21,30.05,16,6,16,0.00
2013-4-27,67.4,55.3,44.0,32.6,28.4,24.3,52,37,24,30.23,30.05,14,6,14,0.00
2013-4-28,67.6,55.6,43.0,40.7,34.2,27.1,71,46,29,30.10,29.97,18,5,18,0.00
2013-4-29,55.0,53.5,51.0,52.7,46.4,33.5,100,78,46,30.03,29.98,14,4,14,0.01
2013-4-30,64.2,56.4,50.3,48.3,37.5,24.9,89,54,26,30.12,30.00,18,5,18,0.00
2013-5-1,65.8,55.4,42.3,43.4,34.6,26.8,69,47,27,30.27,30.12,20,5,20,0.00
2013-5-2,72.5,58.8,44.4,49.8,41.2,34.3,100,58,27,30.26,30.09,16,4,16,0.00
2013-5-3,63.9,55.8,49.3,44.5,37.5,32.1,83,52,34,30.25,30.12,17,7,17,0.00
2013-5-4,68.0,54.6,44.3,49.6,43.6,40.6,100,70,38,30.16,30.00,20,4,20,0.00
2013-5-5,61.4,51.0,42.0,44.1,40.7,36.1,100,71,41,30.10,29.99,14,4,14,0.00
2013-5-6,68.1,54.7,42.7,53.0,48.4,42.5,100,81,54,30.07,29.92,13,4,13,0.00
2013-5-7,71.5,60.6,49.2,62.0,54.5,49.1,100,82,59,29.97,29.86,15,5,15,0.00
2013-5-8,62.2,59.2,54.2,62.1,59.2,54.2,100,100,100,29.90,29.77,14,4,14,1.87
2013-5-9,66.0,58.1,51.8,65.3,57.7,26.7,100,99,33,29.81,29.67,7,2,7,0.77
2013-5-10,78.2,65.0,51.7,67.9,56.4,51.7,100,78,41,29.80,29.67,17,3,17,0.01
2013-5-11,65.0,61.7,59.7,65.0,61.7,59.7,100,100,96,29.70,29.48,12,2,12,0.17
2013-5-12,65.6,59.8,49.8,61.6,45.6,29.0,100,64,33,29.71,29.43,26,10,26,0.02
2013-5-13,52.4,47.6,41.0,34.3,29.8,24.7,70,51,35,29.91,29.70,26,10,26,0.00
2013-5-14,59.2,49.1,40.1,34.7,29.5,22.4,79,50,25,29.95,29.80,18,7,18,0.00
2013-5-15,67.3,55.2,40.9,62.0,46.6,32.8,100,73,56,29.87,29.46,20,4,20,0.00
2013-5-16,81.9,70.3,57.3,63.0,49.6,40.9,100,53,27,29.62,29.49,22,6,22,0.00
2013-5-17,69.6,62.7,56.2,44.8,42.7,39.4,64,49,37,29.99,29.62,20,8,20,0.00
2013-5-18,65.9,57.5,49.3,58.1,50.4,43.7,100,79,50,30.09,29.98,17,3,17,0.10
2013-5-19,57.0,55.9,54.5,99.9,45.4,-43.5,100,81,1,30.12,29.97,9,2,9,0.31
2013-5-20,78.5,66.5,56.1,74.1,61.6,-23.6,100,87,3,29.97,29.74,13,4,13,0.00
2013-5-21,86.2,75.0,62.9,76.1,66.5,-39.5,100,79,1,29.76,29.61,18,7,18,0.00
2013-5-22,79.2,69.0,58.3,75.0,68.1,58.3,100,97,82,29.74,29.61,12,3,12,0.00
2013-5-23,76.2,68.6,64.2,74.3,62.7,-36.7,100,89,1,29.68,29.54,21,4,21,2.87
2013-5-24,64.3,54.4,44.7,99.9,49.2,-43.7,100,89,1,29.75,29.45,23,8,23,0.37
2013-5-25,51.7,47.4,42.9,48.9,43.1,39.3,100,86,66,29.80,29.68,33,16,33,0.47
2013-5-26,63.9,54.2,45.6,41.4,38.6,34.5,80,58,38,29.99,29.73,36,16,36,0.00
2013-5-27,74.1,61.9,44.3,44.6,39.0,34.8,76,45,28,30.04,29.89,20,7,20,0.00
2013-5-28,65.4,57.0,51.1,58.0,51.3,42.9,100,83,56,30.02,29.92,12,2,12,0.40
2013-5-29,83.0,68.0,56.8,99.9,58.8,-23.5,100,76,3,29.93,29.77,20,5,20,0.01
2013-5-30,90.0,80.0,67.1,74.3,67.8,62.9,100,70,44,29.91,29.83,17,6,17,0.00
2013-5-31,90.9,80.7,67.6,72.9,66.0,60.0,100,64,39,29.91,29.77,20,4,20,0.00
2013-6-1,88.6,79.2,67.8,73.6,67.4,61.3,100,69,47,29.81,29.68,21,7,21,0.00
2013-6-2,86.2,77.6,71.6,74.0,70.6,66.3,100,81,54,29.69,29.55,25,9,25,0.49
2013-6-3,75.7,70.1,64.7,99.9,53.9,-38.1,100,70,1,29.64,29.59,17,4,17,0.74
2013-6-4,73.3,65.1,54.5,43.6,41.2,36.4,62,43,30,29.90,29.75,24,10,24,0.00
2013-6-5,72.6,63.6,53.6,50.4,44.2,34.4,66,50,38,30.00,29.89,15,4,15,0.00
2013-6-6,68.3,60.8,53.6,61.7,55.7,47.9,100,85,50,29.94,29.81,16,4,16,0.23
2013-6-7,59.7,58.4,56.5,58.5,36.9,-42.3,100,58,1,29.81,29.46,16,7,16,3.71
2013-6-8,73.8,64.8,54.8,99.9,55.3,-44.0,100,75,2,29.84,29.41,21,8,21,0.36
2013-6-9,78.5,69.0,57.3,65.3,58.3,54.0,100,72,44,29.96,29.83,15,4,15,0.00
2013-6-10,68.2,63.2,59.5,99.9,58.8,-41.6,100,93,1,29.97,29.64,17,5,17,1.53
2013-6-11,76.4,68.2,59.5,73.0,56.7,-37.6,100,71,9,29.64,29.40,32,10,32,0.18
2013-6-12,73.4,67.7,61.9,58.3,53.6,50.2,77,62,48,29.64,29.49,23,10,23,0.00
2013-6-13,62.4,58.5,53.5,60.6,58.1,53.5,100,99,77,29.64,29.30,23,6,23,1.34
2013-6-14,71.8,60.0,51.1,57.6,53.8,49.8,100,82,53,29.67,29.35,26,8,26,0.44
2013-6-15,77.4,68.9,59.8,57.8,52.6,46.2,90,59,36,29.79,29.67,23,7,23,0.00
2013-6-16,78.3,68.9,57.8,66.4,56.6,49.4,90,66,42,29.78,29.55,23,7,23,0.00
2013-6-17,83.1,73.0,63.1,71.3,63.3,58.0,100,75,43,29.72,29.61,22,6,22,0.00
2013-6-18,79.3,67.7,60.0,70.2,64.4,57.7,100,91,57,29.73,29.61,14,3,14,0.32
2013-6-19,72.7,64.1,55.7,60.1,51.7,43.7,100,69,39,29.96,29.68,16,7,16,0.02
2013-6-20,77.7,67.0,54.7,60.7,55.0,48.4,100,69,37,30.08,29.95,15,3,15,0.00
2013-6-21,80.8,70.5,59.3,59.0,55.3,51.1,83,60,44,30.12,30.00,17,6,17,0.00
2013-6-22,82.3,71.1,60.2,62.5,56.8,52.1,82,61,46,30.07,29.91,20,6,20,0.00
2013-6-23,85.5,75.0,63.5,75.1,66.6,55.4,100,77,51,29.99,29.84,21,6,21,0.00
2013-6-24,90.0,78.7,70.9,77.7,69.1,60.8,100,76,39,29.88,29.72,23,6,23,0.00
2013-6-25,89.0,78.7,69.0,74.2,69.1,63.4,100,75,44,29.80,29.59,23,8,23,0.00
2013-6-26,81.5,77.1,71.8,75.3,69.9,66.8,100,79,65,29.65,29.56,17,6,17,0.00
2013-6-27,81.5,73.8,68.1,76.6,70.5,-35.6,100,92,5,29.64,29.33,18,5,18,0.95
2013-6-28,82.4,75.4,69.5,74.8,68.1,0.4,100,81,6,29.36,29.26,20,9,20,0.15
2013-6-29,82.3,73.9,68.1,73.3,69.0,61.0,100,86,49,29.49,29.28,17,5,17,0.00
2013-6-30,81.8,73.3,67.3,99.9,69.3,-36.6,100,92,2,29.71,29.49,15,3,15,0.03
2013-7-1,74.1,72.3,69.7,74.1,63.2,-34.2,100,80,1,29.84,29.69,12,2,12,0.99
2013-7-2,80.2,75.2,71.6,99.9,72.5,-33.4,100,96,1,29.97,29.83,13,2,13,0.22
2013-7-3,74.3,72.6,71.3,74.3,72.6,71.3,100,100,100,30.02,29.95,13,6,13,0.00
2013-7-5,89.9,83.9,72.9,81.9,74.0,68.8,100,74,51,30.00,29.87,18,10,18,0.00
2013-7-6,90.3,82.8,74.8,81.4,75.5,71.1,100,80,55,29.94,29.82,20,7,20,0.00
2013-7-7,91.8,83.4,76.1,82.4,76.3,69.3,100,81,51,29.87,29.70,25,7,25,0.00
2013-7-8,87.3,79.0,70.6,77.2,70.3,65.5,100,77,51,29.85,29.75,18,7,18,0.00
2013-7-9,85.5,78.2,70.5,79.7,73.2,69.4,100,86,60,29.88,29.78,15,3,15,0.00
2013-7-10,84.6,79.1,74.1,81.4,76.5,72.3,100,92,74,29.81,29.59,23,7,23,0.54
2013-7-11,82.6,77.2,72.4,78.0,72.9,63.1,100,88,53,29.72,29.59,12,4,12,0.00
2013-7-12,76.5,72.2,65.1,74.9,67.9,-38.2,100,88,1,29.95,29.72,20,7,20,0.24
2013-7-13,78.3,70.4,64.5,99.9,56.6,-36.0,100,73,1,30.09,29.91,10,3,12,0.22
2013-7-14,88.8,80.2,72.0,99.9,69.1,-33.7,100,75,1,30.14,30.02,17,5,17,0.00
2013-7-15,91.6,83.3,76.3,80.2,76.5,70.0,100,82,50,30.06,29.93,17,5,17,0.00
2013-7-16,89.7,82.8,74.9,76.2,69.4,65.4,99,66,46,30.01,29.93,16,6,16,0.00
2013-7-17,93.0,83.8,74.7,75.8,71.4,64.2,96,68,40,30.02,29.86,12,2,12,0.00
2013-7-18,93.7,86.0,76.6,81.3,74.4,68.8,100,71,46,29.86,29.75,14,4,14,0.00
2013-7-19,94.3,86.7,78.2,81.8,76.7,72.0,100,74,50,29.77,29.58,27,10,27,0.00
2013-7-20,90.3,83.4,77.4,79.3,73.5,67.5,100,74,51,29.65,29.52,28,9,28,0.00
2013-7-21,84.3,78.3,72.7,75.7,66.2,59.1,100,68,50,29.76,29.63,10,4,10,0.00
2013-7-22,81.2,74.6,69.8,99.9,68.0,-9.9,100,86,3,29.76,29.60,9,3,9,0.40
2013-7-23,85.5,76.3,71.8,81.3,70.6,-33.6,100,87,8,29.61,29.35,30,6,30,1.54
2013-7-24,77.7,73.7,66.3,75.0,62.3,-34.4,100,73,1,29.75,29.41,25,7,25,0.01
2013-7-25,66.4,63.5,59.6,65.2,58.2,49.1,100,83,66,29.88,29.76,25,9,25,0.00
2013-7-26,79.9,71.0,64.6,65.8,63.6,60.4,100,80,53,29.86,29.78,17,6,17,0.00
2013-7-27,81.0,72.6,63.1,69.8,64.5,60.3,100,78,52,29.88,29.75,15,4,15,0.00
2013-7-28,76.6,70.5,65.3,99.9,63.9,-38.0,100,86,1,29.82,29.72,14,2,14,0.28
2013-7-29,81.3,73.9,67.6,76.9,54.7,-36.6,100,57,1,29.89,29.75,16,5,16,0.01
2013-7-30,76.5,70.1,60.5,64.6,58.9,55.7,100,69,50,29.98,29.89,15,5,15,0.00
2013-7-31,79.3,70.9,60.0,70.0,63.1,59.2,100,79,52,29.97,29.83,12,2,12,0.00
2013-8-1,73.7,67.7,65.7,99.9,63.4,-37.5,100,89,3,29.86,29.63,18,2,18,0.52
2013-8-2,81.5,72.8,63.6,72.5,60.4,-38.2,100,70,2,29.71,29.58,21,5,21,0.15
2013-8-3,76.6,69.4,64.7,74.3,61.1,-18.0,100,81,3,29.72,29.62,17,6,17,0.07
2013-8-4,76.9,69.5,61.7,67.6,58.6,50.0,100,71,41,29.76,29.64,24,7,24,0.00
2013-8-5,75.4,67.2,59.4,54.9,49.0,41.7,83,54,33,29.86,29.76,18,7,18,0.00
2013-8-6,77.7,68.3,57.6,68.3,57.4,53.0,100,71,44,29.92,29.83,12,2,12,0.00
2013-8-7,76.6,69.8,64.3,73.4,68.5,62.1,100,96,75,29.94,29.85,15,3,15,0.01
2013-8-8,81.0,72.3,68.3,80.9,64.9,-35.0,100,87,2,29.86,29.80,18,2,18,0.26
2013-8-9,84.1,74.6,71.0,99.9,64.4,-33.7,100,79,1,29.81,29.58,22,5,22,0.60
2013-8-10,81.0,73.4,66.8,72.6,65.0,-34.2,100,78,8,29.85,29.65,18,7,18,0.00
2013-8-11,76.5,69.5,59.2,67.2,58.4,52.2,100,70,48,29.94,29.82,14,4,14,0.00
2013-8-12,81.0,73.0,67.0,99.9,60.1,-36.7,100,73,1,29.84,29.71,12,3,12,0.00
2013-8-13,76.5,70.6,66.3,76.5,63.2,-35.8,100,85,1,29.73,29.49,14,2,14,0.56
2013-8-14,71.1,65.0,58.4,67.1,53.6,-37.5,100,69,4,29.84,29.54,28,11,28,0.00
2013-8-15,74.3,65.6,55.4,59.3,52.5,44.8,100,66,40,29.94,29.84,17,5,17,0.00
2013-8-16,77.3,67.7,56.3,66.5,56.0,49.0,100,71,39,30.00,29.92,12,2,12,0.00
2013-8-17,78.9,68.9,57.1,68.4,59.8,54.4,100,76,45,30.08,30.00,12,3,12,0.00
2013-8-18,73.5,68.3,62.7,71.5,66.1,57.6,100,93,71,30.06,29.92,7,1,7,0.00
2013-8-19,77.8,69.9,61.0,74.2,65.8,-2.5,100,89,7,29.92,29.82,12,4,12,0.00
2013-8-20,83.6,73.8,61.9,75.8,62.4,-17.2,100,75,3,29.92,29.84,14,3,14,0.00
2013-8-21,72.1,68.5,64.6,72.1,68.5,64.6,100,100,100,29.95,29.92,1,0,1,0.00
2013-8-23,77.2,74.2,67.5,71.6,60.6,-23.2,100,65,10,29.81,29.71,20,9,20,0.01
2013-8-24,75.5,75.5,75.5,60.2,60.2,60.2,59,59,59,29.81,29.81,9,9,9,0.00
2013-8-25,80.2,75.2,66.6,68.4,57.3,48.1,100,55,33,30.20,29.81,16,8,16,0.00
2013-8-26,76.5,71.0,65.7,75.6,66.8,12.5,100,87,10,30.02,29.69,14,6,14,0.15
2013-8-27,81.8,74.2,68.8,99.9,65.3,-4.4,100,81,5,29.70,29.60,22,5,22,0.08
2013-8-28,84.5,72.7,67.4,80.1,63.8,-36.7,100,82,1,29.70,29.64,21,2,21,0.05
2013-8-29,76.3,70.8,67.5,99.9,68.3,-36.2,100,94,2,29.83,29.68,9,3,9,0.01
2013-8-30,83.5,74.0,67.3,99.9,67.8,6.5,100,85,7,29.83,29.64,16,6,16,0.00
2013-8-31,84.0,76.7,70.6,83.2,71.3,-34.7,100,91,1,29.66,29.58,17,8,17,0.00
2013-9-1,80.2,75.6,71.9,80.1,69.8,-31.2,100,89,3,29.66,29.59,12,2,12,0.03
2013-9-2,79.1,74.5,71.9,79.1,70.5,-32.2,100,93,1,29.60,29.50,12,2,12,0.06
2013-9-3,77.4,71.0,65.6,99.9,63.9,-10.7,100,81,4,29.68,29.50,17,5,17,0.16
2013-9-4,80.1,69.9,61.8,67.1,60.7,53.3,100,77,40,29.79,29.67,20,7,20,0.00
2013-9-5,73.0,66.7,57.7,99.9,52.0,-19.9,100,66,3,29.95,29.70,20,6,20,0.00
2013-9-6,68.6,59.6,51.9,49.5,44.4,39.9,82,59,37,30.06,29.92,13,5,13,0.00
2013-9-7,76.6,64.1,49.2,57.9,50.2,45.1,100,66,34,29.93,29.69,14,4,14,0.00
2013-9-8,77.3,69.0,59.4,68.8,54.9,39.6,91,64,31,29.89,29.61,27,8,27,0.00
2013-9-9,70.0,61.6,51.2,64.2,49.6,41.8,100,67,42,30.06,29.88,18,4,18,0.00
2013-9-10,84.0,73.2,64.4,99.9,67.6,-38.1,100,89,1,29.97,29.84,20,8,20,0.07
2013-9-11,92.3,81.8,71.9,99.9,73.4,-34.1,100,80,2,29.91,29.76,20,6,20,0.00
2013-9-12,84.4,74.0,66.9,84.4,68.6,-30.7,100,90,1,29.78,29.47,41,3,41,2.24
2013-9-13,73.4,65.9,56.3,71.4,64.8,-36.6,100,97,77,29.64,29.42,21,6,21,0.06
2013-9-14,64.1,56.9,51.5,56.3,52.0,49.8,100,85,62,29.93,29.64,20,7,20,0.00
2013-9-15,69.3,58.2,44.8,99.9,46.3,-25.9,100,69,4,30.03,29.88,12,3,12,0.00
2013-9-16,68.0,60.8,53.5,63.8,54.3,-42.4,100,84,2,30.07,29.82,20,5,20,0.00
2013-9-17,61.9,53.5,47.0,49.6,41.0,36.7,96,64,45,30.27,30.06,25,8,25,0.00
2013-9-18,70.6,57.1,43.8,99.9,44.6,-50.1,100,69,1,30.17,29.97,12,3,12,0.00
2013-9-19,75.7,61.3,46.9,62.0,48.3,-46.7,100,67,4,30.01,29.86,13,2,13,0.00
2013-9-20,77.9,63.4,50.5,69.7,55.3,-25.4,100,80,3,29.91,29.78,12,1,12,0.00
2013-9-21,75.3,64.9,54.3,99.9,57.9,-44.5,100,85,2,29.82,29.45,21,4,21,0.57
2013-9-22,67.1,61.4,58.4,67.0,52.1,-42.2,100,75,6,29.61,29.44,24,8,24,0.68
2013-9-23,63.2,55.7,46.3,47.9,44.1,40.6,100,67,47,29.87,29.75,20,8,20,0.68
2013-9-24,71.6,56.5,43.5,99.9,42.6,-51.4,100,65,2,29.89,29.67,17,5,17,0.00
2013-9-25,68.9,58.5,46.8,57.7,48.1,-48.8,100,72,6,29.79,29.67,12,2,12,0.00
2013-9-26,67.1,59.5,52.9,65.0,52.8,-45.5,100,84,4,29.92,29.74,12,4,12,0.00
2013-9-27,64.2,57.9,50.9,62.3,52.0,-46.2,100,85,4,30.09,29.91,12,4,12,0.00
2013-9-28,70.5,60.9,51.8,62.7,54.4,-31.7,100,83,2,30.16,30.04,12,3,12,0.00
2013-9-29,70.2,59.3,50.8,99.9,54.2,-44.1,100,87,2,30.06,29.88,8,1,8,0.00
2013-9-30,71.0,59.9,49.6,62.8,53.4,-43.1,100,83,3,29.91,29.76,8,1,8,0.00
2013-10-1,78.0,64.4,49.8,70.5,58.1,-19.1,100,83,22,29.84,29.69,15,3,15,0.00
2013-10-2,80.7,69.2,57.2,70.7,60.0,-26.9,100,77,2,29.82,29.70,18,5,18,0.00
2013-10-3,76.9,67.2,55.8,66.5,58.8,-12.4,100,79,5,29.96,29.80,12,3,12,0.00
2013-10-4,82.1,69.6,60.1,79.4,65.4,-19.9,100,90,3,29.86,29.75,16,2,16,0.00
2013-10-5,74.5,66.6,62.4,99.9,47.1,-37.9,100,61,1,29.91,29.81,7,2,7,0.00
2013-10-6,65.8,63.9,62.9,65.2,57.7,-11.9,100,87,5,29.91,29.83,15,5,15,0.00
2013-10-7,72.8,66.0,58.4,72.3,57.5,-41.3,100,85,1,29.83,29.52,33,5,33,0.49
2013-10-8,63.1,56.9,50.9,58.4,51.7,45.8,100,85,54,30.14,29.77,15,4,15,0.00
2013-10-9,60.8,54.7,49.7,54.9,49.9,43.9,100,85,54,30.24,30.11,18,6,18,0.00
2013-10-10,59.1,54.7,50.6,59.1,52.2,-33.2,100,96,2,30.12,29.90,18,9,18,0.00
2013-10-11,66.5,61.5,56.6,66.5,59.6,-26.8,100,97,2,29.92,29.83,18,9,18,0.00
2013-10-12,71.8,62.7,56.6,64.4,52.7,35.7,100,73,29,30.10,29.89,18,9,18,0.00
2013-10-13,63.6,56.4,52.0,60.2,50.1,-46.0,100,86,1,30.21,30.09,16,5,16,0.00
2013-10-14,66.2,56.1,51.5,59.6,52.5,-46.1,100,90,1,30.19,30.04,9,2,9,0.00
2013-10-15,70.1,57.9,48.6,65.8,50.9,-45.3,100,83,1,30.07,29.92,12,3,12,0.00
2013-10-16,63.4,57.4,51.2,99.9,51.8,-43.3,100,88,1,29.92,29.71,5,1,5,0.00
2013-10-17,73.2,64.1,59.3,99.9,55.7,-29.1,100,80,2,29.71,29.47,12,3,12,0.01
2013-10-18,65.7,60.2,53.3,63.9,50.1,15.4,100,72,15,29.78,29.45,25,10,25,0.01
2013-10-19,61.6,53.9,43.1,58.1,47.3,-26.7,100,82,4,29.80,29.54,13,2,13,0.07
2013-10-20,60.6,53.4,46.7,54.2,42.6,-17.6,100,71,5,29.87,29.55,21,8,21,0.03
2013-10-21,65.1,53.2,40.5,49.7,40.5,-18.7,100,67,7,29.97,29.78,15,4,15,0.00
2013-10-22,61.2,52.8,43.9,59.2,51.2,-31.4,100,95,18,29.79,29.54,17,5,17,0.00
2013-10-23,52.3,45.6,39.3,99.9,40.3,-53.1,100,83,2,29.63,29.42,16,4,16,0.00
2013-10-24,51.7,44.5,39.1,40.7,32.2,24.1,100,66,35,29.81,29.54,24,9,24,0.00
2013-10-25,50.8,43.2,35.9,35.9,31.3,27.3,91,64,40,30.03,29.81,26,8,26,0.00
2013-10-26,53.1,44.1,31.9,42.7,30.7,-57.9,100,65,3,30.04,29.70,31,9,31,0.00
2013-10-27,55.1,48.9,41.8,34.3,31.2,27.5,71,51,36,29.94,29.66,25,8,25,0.00
2013-10-28,60.6,47.8,34.6,41.3,33.7,29.5,100,63,32,30.14,29.93,22,6,22,0.00
2013-10-29,50.2,44.9,40.2,34.2,30.0,26.9,79,56,41,30.24,30.13,10,3,10,0.00
2013-10-30,55.7,47.0,38.9,55.6,44.5,11.0,100,91,40,30.16,29.98,10,1,10,0.00
2013-10-31,62.1,53.4,42.4,99.9,40.8,-50.1,100,75,1,30.05,29.59,20,2,20,0.02
2013-11-1,69.0,63.7,54.0,67.9,53.3,-38.7,100,77,1,29.59,29.33,53,12,53,0.19
2013-11-2,65.3,56.1,49.0,59.4,45.1,-47.4,100,71,2,29.59,29.41,21,4,21,0.00
2013-11-3,51.4,42.5,34.6,47.6,33.9,14.9,100,73,44,30.28,29.58,21,9,21,0.00
2013-11-4,43.7,36.6,31.3,24.7,16.0,10.7,65,44,27,30.49,30.27,23,6,23,0.00
2013-11-5,52.7,43.6,34.3,45.6,34.8,24.9,100,72,57,30.48,30.28,10,2,10,0.00
2013-11-6,57.9,50.5,40.5,54.6,46.6,-53.1,100,91,1,30.29,29.87,15,3,15,0.00
2013-11-7,60.6,51.8,39.7,99.9,40.9,-48.7,100,77,1,29.88,29.54,27,9,27,0.06
2013-11-8,46.7,41.7,37.7,39.7,29.8,22.8,100,65,41,30.02,29.73,29,10,29,0.00
2013-11-9,47.9,42.3,36.1,32.9,27.6,22.9,77,57,38,30.11,29.81,16,8,16,0.00
2013-11-10,58.0,46.7,39.4,46.0,35.5,25.6,100,67,37,29.86,29.61,30,12,30,0.00
2013-11-11,50.4,46.4,41.0,31.7,27.3,23.9,55,47,41,30.03,29.76,22,12,22,0.00
2013-11-12,50.0,36.4,28.7,37.0,22.6,12.2,100,59,42,30.10,29.73,29,11,29,0.04
2013-11-13,37.1,30.8,26.2,17.7,12.9,6.7,66,48,28,30.19,30.08,21,9,21,0.00
2013-11-14,50.9,39.4,27.5,19.6,16.6,12.9,69,43,24,30.09,29.94,21,7,21,0.00
2013-11-15,55.9,44.0,31.0,27.8,22.0,14.0,65,43,27,30.07,29.94,12,2,12,0.00
2013-11-16,59.7,48.4,39.1,50.5,39.7,20.6,100,74,33,30.16,30.04,9,2,9,0.00
2013-11-17,57.7,51.9,44.0,99.9,40.1,-49.4,100,73,2,30.09,29.59,12,1,12,0.00
2013-11-18,63.5,57.8,48.2,99.9,42.4,-31.9,100,61,22,29.60,29.39,37,12,37,0.23
2013-11-19,48.2,40.8,32.6,31.0,26.0,21.7,69,55,45,30.16,29.57,38,17,38,0.00
2013-11-20,40.9,33.8,28.6,23.8,17.3,11.7,76,53,31,30.43,30.16,20,8,20,0.00
2013-11-21,48.3,38.8,27.1,42.5,29.9,17.7,90,71,53,30.45,30.19,9,2,9,0.00
2013-11-22,56.7,49.7,44.9,99.9,46.3,-33.4,100,91,2,30.19,29.69,12,3,12,0.08
2013-11-23,53.1,39.2,27.2,52.7,24.7,-33.7,100,59,15,29.85,29.69,37,16,37,0.00
2013-11-24,26.9,23.4,20.5,5.2,-0.6,-9.3,45,35,20,30.20,29.80,38,17,38,0.00
2013-11-25,34.2,27.1,20.3,12.0,8.6,3.3,57,46,35,30.30,30.13,20,9,20,0.00
2013-11-26,40.6,33.7,30.8,40.6,21.8,-39.5,100,65,3,30.15,29.63,15,4,15,0.77
2013-11-27,59.4,44.5,31.9,99.9,34.9,-52.8,100,75,2,29.64,29.14,37,12,37,1.06
2013-11-28,32.1,29.2,26.6,20.1,12.1,6.9,68,49,36,30.32,29.53,33,13,33,0.04
2013-11-29,35.8,30.3,25.8,21.5,17.4,9.5,73,59,50,30.57,30.31,16,5,16,0.00
2013-11-30,33.6,28.0,20.8,28.7,17.1,9.4,84,64,49,30.63,30.23,12,3,12,0.00
2013-12-1,46.7,38.8,31.2,41.4,33.8,28.7,100,84,56,30.23,29.85,6,1,6,0.77
2013-12-2,43.9,38.5,34.5,43.7,37.0,-56.2,100,96,6,29.87,29.69,5,1,5,0.40
2013-12-3,49.4,38.9,32.0,48.5,36.4,-55.9,100,93,7,29.83,29.67,6,1,6,0.19
2013-12-4,48.7,41.5,32.7,46.2,39.7,-4.6,100,94,14,29.96,29.82,7,2,7,0.00
2013-12-5,54.3,49.2,43.9,99.9,45.0,-50.4,100,90,1,29.95,29.74,6,1,6,0.06
2013-12-6,54.7,44.7,33.7,54.6,42.3,8.3,100,93,35,29.98,29.68,20,5,20,0.78
2013-12-7,37.7,34.2,28.9,99.9,15.0,-57.5,100,54,1,30.36,29.91,21,7,21,0.25
2013-12-8,29.9,27.8,25.1,27.8,18.9,-61.5,100,70,3,30.46,30.25,17,4,17,0.00
2013-12-9,36.6,32.1,27.3,99.9,18.4,-57.6,100,71,1,30.26,29.76,12,4,12,0.38
2013-12-10,35.4,30.7,25.0,35.4,29.8,-59.9,100,97,5,29.94,29.66,13,3,13,0.03
2013-12-11,32.3,26.7,22.3,21.2,17.7,15.2,89,69,52,30.11,29.94,22,9,22,0.00
2013-12-12,26.6,22.5,19.6,16.3,6.9,2.8,69,51,41,30.16,29.98,22,9,22,0.00
2013-12-13,33.8,26.2,18.1,19.2,11.2,3.3,75,53,46,30.16,29.90,26,10,26,0.00
2013-12-14,26.0,20.1,16.3,21.9,16.2,-67.4,100,89,1,30.33,29.70,15,8,15,0.00
2013-12-15,36.2,31.1,22.6,36.1,27.7,-56.2,100,89,1,29.70,29.38,21,5,21,0.04
2013-12-16,30.4,25.5,19.3,23.2,9.7,3.8,80,52,37,30.07,29.65,20,8,20,0.00
2013-12-17,22.9,19.9,15.9,21.6,10.0,-65.7,100,72,1,30.07,29.75,10,4,10,0.00
2013-12-18,35.3,27.2,18.7,27.3,19.7,16.3,100,76,47,29.98,29.76,24,6,24,0.00
2013-12-19,43.6,33.9,23.2,25.5,21.1,14.6,83,60,41,30.00,29.80,15,4,15,0.29
2013-12-20,48.7,41.5,34.1,34.9,29.3,25.0,92,63,44,29.91,29.76,12,3,12,0.22
2013-12-21,57.5,49.8,41.5,55.6,45.5,-10.8,100,88,6,29.84,29.71,20,3,20,0.00
2013-12-22,67.0,62.3,54.1,99.9,54.0,-42.0,100,84,1,29.77,29.60,31,12,31,0.01
2013-12-23,59.3,51.7,38.5,99.9,35.5,-52.5,100,65,1,29.95,29.69,24,4,24,0.91
2013-12-24,38.4,32.6,22.8,34.9,24.5,4.5,100,73,43,30.17,29.88,26,10,26,0.01
2013-12-25,25.7,21.5,15.8,11.3,5.0,1.4,56,49,42,30.40,30.16,26,6,26,0.00
2013-12-26,35.2,29.2,24.7,29.6,21.6,11.3,96,73,56,30.29,29.94,15,4,15,0.00
2013-12-27,37.9,32.4,25.6,24.0,20.9,17.3,78,63,47,30.17,30.04,23,6,23,0.00
2013-12-28,51.3,39.6,29.1,27.5,23.8,21.4,75,55,33,30.10,29.86,22,7,22,0.00
2013-12-29,41.8,39.1,36.7,40.8,26.5,-53.8,100,71,1,29.88,29.29,20,5,21,1.43
2013-12-30,41.7,33.0,19.6,41.5,19.4,-54.4,100,62,3,30.00,29.51,25,8,25,0.00
2013-12-31,29.1,23.0,17.1,27.8,8.9,1.7,100,56,37,30.10,29.84,20,7,20,0.00
2014-1-1,30.9,25.1,17.1,18.2,9.9,1.6,67,52,38,30.27,30.09,20,4,20,0.00
2014-1-2,27.6,19.9,9.0,22.9,18.1,8.9,100,93,66,30.12,29.55,22,12,22,0.00